| time (UTC) | temp F | wind direction | speed MPH | gust MPH | rain 1hr in | rain 24hr in | rain mn in | humidity % | barometer mb |
| 20260504004516 | 43 | 29 | 0.0 | 1.0 | 0.00 | 0.00 | 0.00 | 65 | 1009.4 |
| 20260504003516 | 44 | 0.0 | 0.0 | 0.00 | 0.00 | 0.00 | 61 | 1009.3 | |
| 20260504002519 | 45 | 62 | 0.0 | 1.0 | 0.00 | 0.00 | 0.00 | 59 | 1009.2 |
| 20260504001517 | 47 | 60 | 0.0 | 1.0 | 0.00 | 0.00 | 0.00 | 54 | 1009.0 |
| 20260504000517 | 49 | 8 | 0.0 | 1.0 | 0.00 | 0.00 | 0.00 | 51 | 1008.9 |
| 20260503235517 | 49 | 335 | 1.0 | 2.0 | 0.00 | 0.00 | 0.00 | 49 | 1008.8 |
| 20260503234522 | 50 | 299 | 1.0 | 6.0 | 0.00 | 0.00 | 0.00 | 49 | 1008.7 |
| 20260503233517 | 51 | 294 | 1.0 | 5.0 | 0.00 | 0.00 | 0.00 | 46 | 1008.5 |
| 20260503232518 | 51 | 316 | 2.0 | 3.0 | 0.00 | 0.00 | 0.00 | 44 | 1008.4 |
| 20260503231518 | 51 | 333 | 3.0 | 5.0 | 0.00 | 0.00 | 0.00 | 44 | 1008.3 |
| 20260503230518 | 51 | 288 | 3.0 | 6.0 | 0.00 | 0.00 | 0.00 | 43 | 1008.1 |
| 20260503225538 | 52 | 305 | 3.0 | 6.0 | 0.00 | 0.00 | 0.00 | 43 | 1008.0 |
| 20260503224518 | 52 | 317 | 3.0 | 7.0 | 0.00 | 0.00 | 0.00 | 41 | 1007.9 |
| 20260503223518 | 52 | 313 | 4.0 | 8.0 | 0.00 | 0.00 | 0.00 | 42 | 1007.8 |
| 20260503222518 | 52 | 296 | 4.0 | 8.0 | 0.00 | 0.00 | 0.00 | 43 | 1007.7 |
| 20260503221543 | 52 | 324 | 3.0 | 6.0 | 0.00 | 0.00 | 0.00 | 42 | 1007.5 |
| 20260503220518 | 52 | 296 | 4.0 | 8.0 | 0.00 | 0.01 | 0.00 | 42 | 1007.3 |
| 20260503215539 | 52 | 318 | 3.0 | 9.0 | 0.00 | 0.01 | 0.00 | 43 | 1007.3 |
| 20260503214518 | 52 | 294 | 3.0 | 7.0 | 0.00 | 0.01 | 0.00 | 44 | 1007.2 |
| 20260503213519 | 52 | 304 | 3.0 | 9.0 | 0.00 | 0.01 | 0.00 | 43 | 1007.0 |
| 20260503212542 | 52 | 324 | 3.0 | 6.0 | 0.00 | 0.01 | 0.00 | 44 | 1006.9 |
| 20260503211536 | 52 | 316 | 4.0 | 8.0 | 0.00 | 0.01 | 0.00 | 44 | 1006.9 |
| 20260503210519 | 52 | 303 | 3.0 | 7.0 | 0.00 | 0.01 | 0.00 | 44 | 1006.7 |
| 20260503205519 | 52 | 304 | 4.0 | 6.0 | 0.00 | 0.01 | 0.00 | 44 | 1006.5 |
| 20260503204516 | 53 | 308 | 4.0 | 8.0 | 0.00 | 0.01 | 0.00 | 45 | 1006.4 |
| 20260503203537 | 53 | 298 | 4.0 | 7.0 | 0.00 | 0.01 | 0.00 | 44 | 1006.3 |
| 20260503202640 | 53 | 288 | 4.0 | 10.0 | 0.00 | 0.01 | 0.00 | 44 | 1006.2 |
| 20260503201517 | 53 | 291 | 4.0 | 7.0 | 0.00 | 0.01 | 0.00 | 45 | 1006.1 |
| 20260503200517 | 53 | 319 | 4.0 | 7.0 | 0.00 | 0.01 | 0.00 | 45 | 1006.1 |
| 20260503195520 | 52 | 336 | 3.0 | 6.0 | 0.00 | 0.01 | 0.00 | 46 | 1006.0 |
| 20260503194543 | 52 | 289 | 3.0 | 6.0 | 0.00 | 0.01 | 0.00 | 48 | 1006.2 |
| 20260503193520 | 52 | 311 | 3.0 | 5.0 | 0.00 | 0.01 | 0.00 | 49 | 1006.3 |
| 20260503192519 | 52 | 298 | 2.0 | 4.0 | 0.00 | 0.01 | 0.00 | 50 | 1006.3 |
| 20260503191522 | 52 | 297 | 3.0 | 8.0 | 0.00 | 0.01 | 0.00 | 49 | 1006.3 |
| 20260503190517 | 52 | 318 | 3.0 | 5.0 | 0.00 | 0.01 | 0.00 | 51 | 1006.3 |
| 20260503185518 | 52 | 302 | 3.0 | 4.0 | 0.00 | 0.01 | 0.00 | 51 | 1006.2 |
| 20260503184518 | 53 | 301 | 3.0 | 5.0 | 0.00 | 0.01 | 0.00 | 51 | 1006.2 |
| 20260503183518 | 52 | 355 | 1.0 | 5.0 | 0.00 | 0.01 | 0.00 | 52 | 1006.2 |
| 20260503182520 | 52 | 333 | 3.0 | 5.0 | 0.00 | 0.01 | 0.00 | 52 | 1006.3 |
| 20260503181518 | 51 | 347 | 3.0 | 6.0 | 0.00 | 0.01 | 0.00 | 52 | 1006.3 |
| 20260503180518 | 51 | 2 | 3.0 | 7.0 | 0.00 | 0.01 | 0.00 | 55 | 1006.4 |
| 20260503175518 | 50 | 322 | 3.0 | 9.0 | 0.00 | 0.01 | 0.00 | 56 | 1006.5 |
| 20260503174539 | 50 | 290 | 4.0 | 9.0 | 0.00 | 0.01 | 0.00 | 58 | 1006.5 |
| 20260503173516 | 51 | 320 | 3.0 | 7.0 | 0.00 | 0.01 | 0.00 | 57 | 1006.4 |
| 20260503172519 | 50 | 332 | 3.0 | 7.0 | 0.00 | 0.01 | 0.00 | 57 | 1006.4 |
| 20260503171520 | 50 | 301 | 4.0 | 10.0 | 0.00 | 0.01 | 0.00 | 57 | 1006.4 |
| 20260503170521 | 50 | 294 | 4.0 | 8.0 | 0.00 | 0.01 | 0.00 | 57 | 1006.4 |
| 20260503150517 | 45 | 319 | 3.0 | 6.0 | 0.00 | 0.01 | 0.00 | 79 | 1006.5 |
| 20260503130519 | 44 | 354 | 3.0 | 7.0 | 0.00 | 0.03 | 0.00 | 82 | 1006.7 |
| 20260503110540 | 42 | 307 | 2.0 | 3.0 | 0.00 | 0.09 | 0.00 | 85 | 1007.2 |
| 20260503081522 | 44 | 318 | 2.0 | 2.0 | 0.00 | 0.10 | 0.00 | 87 | 1008.0 |
| 20260503080522 | 44 | 328 | 1.0 | 2.0 | 0.00 | 0.10 | 0.00 | 87 | 1008.3 |
| 20260503072524 | 44 | 345 | 2.0 | 3.0 | 0.00 | 0.10 | 0.00 | 88 | 1008.6 |
| 20260503071523 | 44 | 339 | 1.0 | 3.0 | 0.00 | 0.10 | 0.00 | 88 | 1008.5 |
| 20260503070523 | 45 | 316 | 2.0 | 3.0 | 0.00 | 0.10 | 0.00 | 89 | 1008.6 |
| 20260503054524 | 46 | 297 | 1.0 | 2.0 | 0.00 | 0.10 | 0.00 | 86 | 1009.8 |
| 20260503053524 | 46 | 332 | 2.0 | 2.0 | 0.00 | 0.10 | 0.00 | 85 | 1009.6 |
| 20260503052524 | 46 | 320 | 1.0 | 3.0 | 0.00 | 0.10 | 0.00 | 84 | 1009.7 |
| 20260503051525 | 46 | 319 | 1.0 | 2.0 | 0.00 | 0.10 | 0.00 | 83 | 1009.9 |
| 20260503050524 | 47 | 326 | 2.0 | 3.0 | 0.00 | 0.10 | 0.00 | 82 | 1010.0 |
| 20260503045524 | 47 | 336 | 2.0 | 3.0 | 0.00 | 0.10 | 0.00 | 82 | 1010.1 |
| 20260503044545 | 47 | 327 | 2.0 | 3.0 | 0.00 | 0.10 | 0.00 | 82 | 1010.0 |
| 20260503043526 | 47 | 306 | 2.0 | 3.0 | 0.00 | 0.10 | 0.00 | 83 | 1010.2 |
| 20260503042525 | 47 | 327 | 2.0 | 3.0 | 0.00 | 0.10 | 0.00 | 83 | 1010.4 |
| 20260503041525 | 48 | 328 | 2.0 | 3.0 | 0.00 | 0.10 | 0.00 | 83 | 1010.5 |
| 20260503040525 | 48 | 302 | 2.0 | 3.0 | 0.00 | 0.10 | 0.00 | 87 | 1010.6 |
| 20260503035519 | 47 | 299 | 1.0 | 3.0 | 0.00 | 0.10 | 0.10 | 92 | 1010.5 |
| 20260503034520 | 48 | 314 | 1.0 | 2.0 | 0.00 | 0.10 | 0.10 | 93 | 1010.5 |
| 20260503033541 | 48 | 342 | 0.0 | 1.0 | 0.00 | 0.10 | 0.10 | 92 | 1010.5 |
| 20260503032520 | 48 | 302 | 1.0 | 3.0 | 0.00 | 0.10 | 0.10 | 93 | 1010.5 |
| 20260503031519 | 48 | 296 | 1.0 | 3.0 | 0.00 | 0.10 | 0.10 | 94 | 1010.6 |
| 20260503030519 | 48 | 312 | 1.0 | 2.0 | 0.00 | 0.10 | 0.10 | 96 | 1010.6 |
| 20260503025520 | 48 | 298 | 0.0 | 2.0 | 0.00 | 0.10 | 0.10 | 97 | 1010.6 |
| 20260503024520 | 48 | 1 | 0.0 | 1.0 | 0.00 | 0.10 | 0.10 | 96 | 1010.6 |
| 20260503023540 | 48 | 299 | 0.0 | 1.0 | 0.00 | 0.10 | 0.10 | 96 | 1010.5 |
| 20260503022517 | 48 | 329 | 0.0 | 1.0 | 0.00 | 0.10 | 0.10 | 95 | 1010.6 |
| 20260503021517 | 48 | 54 | 0.0 | 1.0 | 0.00 | 0.10 | 0.10 | 95 | 1010.7 |
| 20260503020518 | 48 | 356 | 0.0 | 2.0 | 0.00 | 0.10 | 0.10 | 95 | 1010.9 |
| 20260503015518 | 49 | 352 | 0.0 | 1.0 | 0.00 | 0.10 | 0.10 | 95 | 1011.0 |
| 20260503014518 | 49 | 315 | 1.0 | 2.0 | 0.00 | 0.10 | 0.10 | 95 | 1011.1 |
| 20260503013518 | 48 | 6 | 0.0 | 1.0 | 0.00 | 0.10 | 0.10 | 94 | 1011.0 |
| 20260503012520 | 49 | 90 | 0.0 | 2.0 | 0.00 | 0.10 | 0.10 | 94 | 1011.0 |
| 20260503011520 | 49 | 336 | 0.0 | 1.0 | 0.00 | 0.10 | 0.10 | 94 | 1011.0 |
| 20260503010518 | 49 | 101 | 0.0 | 1.0 | 0.00 | 0.10 | 0.10 | 94 | 1010.9 |
| 20260503005520 | 49 | 91 | 0.0 | 1.0 | 0.00 | 0.10 | 0.10 | 94 | 1010.8 |